Location: Unspecified
(51.3762°N, 0.0000°E)
Time: 07:46:05
(UTC+00:00)

O/OREOS (USA 219) - Pass Details

Date: 30 July 2019
Orbit: 621 x 646 km, 72.0° (Epoch: 22 May)

Event Time Altitude Azimuth Distance (km) Brightness Sun altitude
Exits shadow 03:26:29 - 234° (SW) 2,081 ? -7.5°
Reaches altitude 10° 03:26:38 10° 235° (SW) 2,027 ? -7.5°
Maximum altitude 03:30:57 42° 306° (NW) 917 ? -7.0°
Drops below altitude 10° 03:35:17 10° 18° (NNE) 2,024 ? -6.5°
Sets 03:37:39 0° 25° (NNE) 2,932 ? -6.2°
